[[{"header":{"parameterUnit":"m.s-1","parameterCategory":1,"la1":30.2991,"la2":30.254,"lo1":-89.0895,"lo2":-89.0444,"dy":0.0017,"dx":0.0017,"nx":28,"ny":28,"refTime":"2024-03-30T09:00:00:Z","depth":0,"parameterNumber":2,"parameterNumberName":"U-component_of_WINDS"},"data":[0,0,0,0,0,0,0,0,0,0,0,0,0,0,0,0,0,0,0,0,0,0,0,0,0,0,0,0,0,0,0,0,0,0,0,0,0,0,0,0,0,0,0,0,0,0,0,0,0,0,0,0,0,0,0,0,0,0,-1.55,-1.55,0,-1.5469,-1.5469,-1.5468,-1.5439,-1.5439,-1.5438,-1.5438,-1.5406,-1.5406,-1.5405,0,0,0,0,0,0,0,0,0,0,0,0,0,-1.5535,-1.5534,-1.55,-1.55,-1.5499,-1.5469,-1.5469,-1.5468,-1.5439,-1.5439,-1.5438,-1.5438,-1.5407,-1.5406,-1.5405,0,0,0,0,0,0,0,0,0,0,0,0,0,-1.5513,-1.5534,-1.55,-1.5481,-1.5479,-1.5469,-1.5469,-1.5468,-1.5439,-1.5439,-1.5438,-1.5438,-1.5407,-1.5406,-1.5405,-1.5412,0,0,-1.5403,-1.5403,0,0,0,0,0,0,0,0,-1.5515,-1.5512,-1.5484,-1.5483,-1.548,-1.5457,-1.5469,-1.5449,-1.5439,-1.5454,-1.5438,-1.5437,-1.5424,-1.5422,-1.5417,-1.541,-1.5409,-1.5403,-1.5403,-1.5402,-1.5402,0,0,0,0,0,0,0,-1.5516,-1.5513,-1.5488,-1.5484,-1.5482,-1.5474,-1.5471,-1.5465,-1.5443,-1.5453,-1.5451,-1.5448,-1.5423,-1.5418,-1.5416,-1.5408,-1.5403,-1.5402,-1.5402,-1.5402,-1.5404,-1.5405,0,0,0,0,0,0,-1.552,-1.5515,-1.5489,-1.5487,-1.5496,-1.5474,-1.547,-1.5465,-1.5443,-1.5439,-1.5448,-1.5446,-1.5419,-1.5417,-1.5415,-1.542,-1.5402,-1.5402,-1.5401,-1.5404,-1.5404,-1.5405,0,0,0,0,0,0,-1.5521,-1.5518,-1.549,-1.55,-1.5496,-1.5474,-1.5469,-1.5465,-1.546,-1.5439,-1.5435,-1.5447,-1.5419,-1.5416,-1.5412,-1.5418,-1.5401,-1.54,-1.5403,-1.5404,-1.5405,-1.543,0,0,0,0,0,0,-1.5522,-1.5519,-1.5521,-1.55,-1.5496,-1.5488,-1.5469,-1.5465,-1.5459,-1.5456,-1.5437,-1.5433,-1.5418,-1.5414,-1.5412,-1.5417,-1.54,-1.5402,-1.5403,-1.5404,-1.5429,-1.5432,-1.5435,0,0,0,0,0,-1.5524,-1.553,-1.5521,-1.5518,-1.5498,-1.5489,-1.5486,-1.5468,-1.5459,-1.5461,-1.5448,-1.5434,-1.5418,-1.5414,-1.5411,-1.5416,-1.5402,-1.5403,-1.5404,-1.5428,-1.5431,-1.5435,0,0,0,0,0,0,-1.5552,-1.5527,-1.5517,-1.5517,-1.5505,-1.5484,-1.5485,-1.5473,-1.5464,-1.5462,-1.544,-1.5436,-1.5435,-1.5425,-1.5421,-1.5421,-1.5408,-1.5409,-1.5427,-1.543,-1.5433,-1.5435,-1.5399,0,0,0,0,0,-1.5558,-1.5553,-1.5531,-1.5533,-1.5527,-1.5508,-1.5503,-1.549,-1.5477,-1.5472,-1.5458,-1.5447,-1.5439,-1.5434,-1.5426,-1.5428,-1.5423,-1.543,-1.5433,-1.5436,-1.5436,-1.5435,-1.5438,-1.5409,-1.5409,-1.5409,0,0,-1.5571,-1.5557,-1.5554,-1.5538,-1.5528,-1.5522,-1.5504,-1.5499,-1.5495,-1.5472,-1.5467,-1.5457,-1.5442,-1.5441,-1.544,-1.5433,-1.5443,-1.5437,-1.5439,-1.5438,-1.5437,-1.544,-1.5442,-1.541,-1.5409,-1.5409,0,0,-1.5591,-1.558,-1.558,-1.5569,-1.5553,-1.554,-1.554,-1.5521,-1.5513,-1.5508,-1.549,-1.5485,-1.5473,-1.5463,-1.5456,-1.5472,-1.5459,-1.547,-1.5485,-1.5484,-1.5487,-1.5488,-1.5493,-1.5495,-1.5471,-1.5471,-1.5471,0,-1.5609,-1.56,-1.5581,-1.5577,-1.557,-1.5549,-1.5549,-1.554,-1.5522,-1.5518,-1.5511,-1.5494,-1.5483,-1.5478,-1.5482,-1.5478,-1.5477,-1.5472,-1.5488,-1.549,-1.5491,-1.5495,-1.5497,-1.5472,-1.5472,-1.5472,-1.5472,0,-1.5622,-1.5616,-1.5618,-1.5601,-1.5594,-1.5592,-1.5573,-1.5569,-1.5557,-1.5544,-1.554,-1.5525,-1.5513,-1.5512,-1.5501,-1.5506,-1.5502,-1.5492,-1.5478,-1.5496,-1.5499,-1.5501,-1.5474,-1.5474,-1.5474,-1.5473,0,0,-1.5659,-1.5631,-1.5632,-1.5623,-1.5604,-1.5599,-1.5596,-1.5584,-1.5581,-1.557,-1.5566,-1.5556,-1.5546,-1.5538,-1.5526,-1.5526,-1.5538,-1.5515,-1.5514,-1.5519,-1.5542,-1.555,-1.5552,-1.553,-1.553,-1.553,-1.5543,0,-1.5675,-1.5667,-1.565,-1.5648,-1.5642,-1.5622,-1.5619,-1.5607,-1.5595,-1.5588,-1.5576,-1.5568,-1.5556,-1.5551,-1.5551,-1.5537,-1.5542,-1.5536,-1.5526,-1.5526,-1.5529,-1.5554,-1.5562,-1.5575,-1.5545,-1.5545,-1.5545,0,-1.5693,-1.5682,-1.5679,-1.5659,-1.5656,-1.5654,-1.5641,-1.5635,-1.5621,-1.5612,-1.5604,-1.559,-1.5585,-1.5574,-1.5567,-1.5563,-1.5558,-1.5551,-1.5551,-1.5548,-1.5536,-1.5551,-1.5578,-1.558,-1.5547,-1.5547,-1.5547,0,-1.5718,-1.5703,-1.5699,-1.5693,-1.567,-1.5669,-1.566,-1.5645,-1.5639,-1.5628,-1.5624,-1.5613,-1.5607,-1.5599,-1.5582,-1.5575,-1.5577,-1.5564,-1.5569,-1.5569,-1.5569,-1.5569,-1.5595,-1.5568,-1.5568,-1.5568,-1.5568,0,-1.5737,-1.5736,-1.571,-1.5708,-1.5706,-1.5686,-1.5685,-1.5674,-1.5661,-1.5655,-1.5638,-1.5634,-1.5612,-1.5606,-1.5593,-1.5589,-1.5586,-1.5579,-1.5575,-1.558,-1.5581,-1.5576,-1.5574,-1.5569,-1.5568,-1.5568,-1.5568,0,-1.5766,-1.5748,-1.5742,-1.5721,-1.5716,-1.5715,-1.5697,-1.5694,-1.5681,-1.5675,-1.5672,-1.5653,-1.5644,-1.5626,-1.5613,-1.5604,-1.5603,-1.5597,-1.5607,-1.5605,-1.561,-1.561,-1.5633,-1.5635,-1.5607,-1.5608,-1.5608,0,-1.5779,-1.5777,-1.5755,-1.575,-1.5742,-1.5734,-1.5727,-1.5708,-1.5702,-1.5686,-1.5684,-1.5674,-1.5664,-1.5651,-1.5636,-1.5625,-1.5618,-1.5627,-1.5617,-1.5621,-1.5617,-1.5617,-1.5617,-1.5629,-1.563,-1.563,-1.563,0,-1.5803,-1.5794,-1.5785,-1.5773,-1.5765,-1.5755,-1.5744,-1.5741,-1.5719,-1.5713,-1.5703,-1.5696,-1.5682,-1.5671,-1.5659,-1.5649,-1.5636,-1.5634,-1.5634,-1.5638,-1.5644,-1.564,-1.5613,-1.5633,-1.5633,-1.5633,-1.5633,-1.5632,-1.5823,-1.5821,-1.5805,-1.5795,-1.5784,-1.5774,-1.577,-1.5756,-1.5747,-1.5734,-1.5724,-1.5715,-1.57,-1.5681,-1.5673,-1.5665,-1.5659,-1.566,-1.566,-1.566,-1.5662,-1.5646,-1.5663,-1.5663,-1.5663,-1.5663,-1.5663,0,-1.5846,-1.5835,-1.5826,-1.581,-1.5802,-1.5791,-1.5777,-1.5772,-1.5764,-1.5751,-1.5742,-1.5731,-1.5721,-1.5704,-1.5693,-1.569,-1.5684,-1.5688,-1.5687,-1.5685,-1.5668,-1.5669,-1.5693,-1.5693,-1.5693,-1.5693,-1.5693,-1.5693,-1.5857,-1.5851,-1.5841,-1.583,-1.5818,-1.5809,-1.5802,-1.5793,-1.5782,-1.577,-1.5761,-1.5751,-1.5737,-1.5724,-1.5714,-1.5709,-1.5706,-1.5711,-1.5705,-1.5689,-1.5686,-1.5684,-1.5684,-1.5711,-1.5711,-1.5722,-1.5722,-1.5722]},{"header":{"parameterUnit":"m.s-1","parameterCategory":1,"la1":30.2991,"la2":30.254,"lo1":-89.0895,"lo2":-89.0444,"dy":0.0017,"dx":0.0017,"nx":28,"ny":28,"refTime":"2024-03-30T09:00:00:Z","depth":0,"parameterNumber":3,"parameterNumberName":"V-component_of_WINDS"},"data":[0,0,0,0,0,0,0,0,0,0,0,0,0,0,0,0,0,0,0,0,0,0,0,0,0,0,0,0,0,0,0,0,0,0,0,0,0,0,0,0,0,0,0,0,0,0,0,0,0,0,0,0,0,0,0,0,0,0,5.8323,5.8325,0,5.844,5.8442,5.8443,5.8412,5.841,5.8407,5.8405,5.8518,5.8523,5.8528,0,0,0,0,0,0,0,0,0,0,0,0,0,5.8066,5.8071,5.8323,5.8325,5.8326,5.844,5.8442,5.8443,5.8412,5.841,5.8407,5.8404,5.8516,5.8522,5.8528,0,0,0,0,0,0,0,0,0,0,0,0,0,5.818,5.8072,5.8323,5.8325,5.8326,5.844,5.8442,5.8444,5.8413,5.841,5.8406,5.8403,5.8514,5.8522,5.8529,5.8646,0,0,5.8553,5.8556,0,0,0,0,0,0,0,0,5.8173,5.8189,5.8323,5.8325,5.8326,5.8408,5.8392,5.8511,5.8414,5.838,5.8405,5.8401,5.8484,5.8494,5.8523,5.8652,5.8656,5.8553,5.8558,5.8561,5.8564,0,0,0,0,0,0,0,5.8165,5.8184,5.8369,5.8325,5.8327,5.8317,5.833,5.8415,5.8449,5.8382,5.838,5.8395,5.8484,5.8516,5.8525,5.8658,5.8553,5.856,5.8565,5.8568,5.889,5.8894,0,0,0,0,0,0,5.8157,5.8178,5.8366,5.8373,5.824,5.8325,5.8339,5.8385,5.8448,5.8455,5.8398,5.8393,5.8504,5.8516,5.8529,5.8673,5.8561,5.8569,5.8573,5.8886,5.8891,5.8895,0,0,0,0,0,0,5.8152,5.8174,5.8361,5.8275,5.8298,5.8333,5.8386,5.8389,5.8421,5.846,5.8466,5.8425,5.8502,5.8518,5.8618,5.8676,5.8572,5.8579,5.8882,5.8888,5.8893,5.8959,0,0,0,0,0,0,5.8145,5.8173,5.8219,5.8276,5.8303,5.845,5.8389,5.8394,5.8436,5.8431,5.8487,5.8493,5.85,5.8607,5.8626,5.8685,5.8585,5.8877,5.8884,5.8891,5.8952,5.8966,5.8979,0,0,0,0,0,5.8135,5.8231,5.8221,5.8244,5.8362,5.8454,5.8469,5.8478,5.844,5.8487,5.8512,5.8491,5.8666,5.8618,5.8639,5.87,5.8873,5.8882,5.8891,5.8946,5.8963,5.8978,0,0,0,0,0,0,5.8176,5.8238,5.8229,5.8346,5.8395,5.8448,5.8507,5.8496,5.8555,5.8547,5.8554,5.8566,5.867,5.8694,5.8639,5.8818,5.8764,5.8777,5.8798,5.8816,5.8829,5.8821,5.8592,0,0,0,0,0,5.8199,5.8271,5.832,5.8418,5.8444,5.8471,5.8512,5.8515,5.8565,5.8585,5.8617,5.8665,5.8731,5.8774,5.8837,5.8955,5.8967,5.9007,5.9021,5.9032,5.9044,5.9109,5.9128,5.8924,5.8924,5.8924,0,0,5.8246,5.8289,5.8333,5.8428,5.8466,5.8539,5.8489,5.8567,5.8621,5.8596,5.8694,5.8719,5.8773,5.8883,5.8933,5.8907,5.9103,5.9043,5.9051,5.9058,5.912,5.914,5.9157,5.893,5.8929,5.8928,0,0,5.8371,5.841,5.8498,5.8538,5.8599,5.8616,5.8637,5.8693,5.871,5.8809,5.8792,5.8855,5.8968,5.9008,5.9042,5.9183,5.9167,5.9203,5.9274,5.9338,5.9354,5.9368,5.942,5.9438,5.9214,5.9215,5.9215,0,5.8421,5.8533,5.8543,5.8625,5.8667,5.865,5.8738,5.8776,5.8852,5.8881,5.8851,5.8995,5.9029,5.9149,5.9184,5.9212,5.9236,5.9197,5.9351,5.9366,5.9379,5.9429,5.9448,5.9219,5.9218,5.9218,5.9217,0,5.8593,5.8671,5.8734,5.8813,5.8861,5.8945,5.8966,5.9014,5.9013,5.9033,5.9134,5.9175,5.9247,5.9275,5.9273,5.9395,5.9378,5.935,5.9296,5.9403,5.9449,5.9468,5.9225,5.9223,5.9222,5.9221,0,0,5.8747,5.8832,5.8855,5.8891,5.8957,5.9016,5.9098,5.9172,5.9213,5.9266,5.9336,5.9433,5.9408,5.9447,5.945,5.9505,5.9617,5.947,5.9472,5.9498,5.9755,5.9778,5.98,5.9605,5.9609,5.9612,5.9752,0,5.8878,5.9029,5.9041,5.9175,5.9247,5.9232,5.9305,5.9352,5.9373,5.9435,5.9457,5.9527,5.9488,5.9512,5.9567,5.9592,5.9669,5.9581,5.967,5.9673,5.9659,5.9824,5.9848,5.9978,5.977,5.9773,5.9775,0,5.9053,5.9115,5.9258,5.9316,5.9346,5.9412,5.9481,5.9541,5.9593,5.9605,5.965,5.9645,5.9729,5.9671,5.9787,5.9727,5.9763,5.9781,5.9786,5.9796,5.9732,5.984,6.0019,6.0039,5.9803,5.9801,5.9799,0,5.9153,5.9272,5.9374,5.9405,5.9474,5.9521,5.9551,5.9601,5.9645,5.9703,5.9732,5.9798,5.9835,5.9886,5.9898,5.9855,6.0014,5.9957,6.0026,6.0026,6.0061,6.0059,6.0251,6.0082,6.0081,6.0081,6.008,0,5.93,5.9389,5.9421,5.9483,5.9581,5.9593,5.9689,5.9716,5.9761,5.9827,5.9816,5.9878,5.989,5.9954,5.9964,6.0059,6.0074,6.0085,6.0087,6.0088,6.0087,6.0113,6.0105,6.0086,6.0085,6.0084,6.0083,0,5.943,5.9455,5.9565,5.9623,5.9639,5.9709,5.9757,5.9817,5.9837,5.9921,5.9941,5.9972,6.0047,6.0064,6.0152,6.0158,6.0271,6.0263,6.0255,6.0255,6.0324,6.0318,6.054,6.0571,6.038,6.0381,6.0383,0,5.9524,5.9592,5.9658,5.9704,5.9737,5.981,5.9855,5.9869,5.9916,5.9983,6.0034,6.0108,6.0168,6.0288,6.0317,6.0384,6.0379,6.0452,6.0389,6.0388,6.0382,6.0379,6.0387,6.0465,6.0467,6.0468,6.047,0,5.9688,5.9697,5.9765,5.9838,5.9894,5.9951,6.0005,6.0042,6.0062,6.0116,6.0194,6.0241,6.0333,6.0407,6.0475,6.0503,6.0491,6.0489,6.0509,6.0512,6.0505,6.0512,6.029,6.0485,6.0483,6.0482,6.0481,6.0481,5.9804,5.9865,5.9922,5.9998,6.0041,6.0092,6.0152,6.0181,6.0247,6.0325,6.0328,6.0413,6.0464,6.0555,6.0588,6.0653,6.063,6.0659,6.0666,6.0673,6.0681,6.0493,6.0665,6.0665,6.0664,6.0664,6.0664,0,5.9969,6.0006,6.0076,6.0154,6.0214,6.0199,6.0258,6.0309,6.0386,6.0435,6.0496,6.0586,6.0658,6.0693,6.0764,6.081,6.0806,6.0828,6.0825,6.0833,6.0696,6.0673,6.083,6.083,6.083,6.083,6.083,6.083,6.0063,6.0166,6.0182,6.0306,6.0341,6.0428,6.0463,6.051,6.055,6.0653,6.0714,6.0737,6.0781,6.0855,6.092,6.0928,6.0955,6.0981,6.0986,6.0859,6.0842,6.0826,6.0804,6.0986,6.0987,6.1118,6.1119,6.112]}]]